Weather History for Durango, CO

Change the Weather History Date:

Friday, February 8, 2013

  Actual Average Record
Temperature  
Mean Temperature 36 °F 27 °F  
Max Temperature 46 °F 41 °F 60 °F (1970)
Min Temperature 26 °F 13 °F -6 °F (1974)
Degree Days  
Heating Degree Days 29 38  
Month to date heating degree days 277 313  
Since 1 July heating degree days 4514 4467  
Cooling Degree Days 0 0  
Month to date cooling degree days 0 0  
Year to date cooling degree days 0 0  
Moisture  
Dew Point 21 °F    
Average Humidity 56    
Maximum Humidity 75    
Minimum Humidity 37    
Precipitation  
Precipitation 0.00 in 0.05 in 0.83 in (2001)
Month to date precipitation 0.00 0.32  
Year to date precipitation 1.74 1.44  
Sea Level Pressure  
Sea Level Pressure 29.90 in    
Wind  
Wind Speed 9 mph (ESE)    
Max Wind Speed 21 mph    
Max Gust Speed 29 mph    
Visibility 10 miles    
Events      
T = Trace of Precipitation, MM = Missing Value Source: NWS Daily Summary

Daily Weather History Graph

Daily Weather History Graph

Search for Another Location

Airport:

Trip Planner

Search our weather history database for the weather conditions in past years. The results will help you decide how hot, cold, wet, or windy it might be!

Date:

Astronomy

Feb. 08, 2013 Rise Set
Actual Time 7:07 AM MST 5:43 PM MST
Civil Twilight 6:40 AM MST 6:10 PM MST
Nautical Twilight 6:09 AM MST 6:41 PM MST
Astronomical Twilight 5:39 AM MST 7:12 PM MST
Moon 5:36 AM MST (2/8) 4:21 PM MST (2/8)
Length of Visible Light 11h 30m
Length of Day
10h 36m
Waning Crescent, 3% of the Moon is Illuminated
Feb 8
Waning Crescent
Feb 10
New
Feb 17
First Quarter
Feb 25
Full
Mar 4
Last Quarter

Hourly Weather History & Observations

Time (MST) Temp. Windchill Dew Point Humidity Pressure Visibility Wind Dir Wind Speed Gust Speed Precip Events Conditions
12:53 AM 28.0 °F - 19.0 °F 69% 30.11 in 10.0 mi Calm Calm - N/A   Mostly Cloudy
1:53 AM 27.0 °F - 19.0 °F 72% 30.10 in 10.0 mi Calm Calm - N/A   Overcast
2:53 AM 28.0 °F 22.8 °F 21.0 °F 75% 30.08 in 10.0 mi ENE 4.6 mph - N/A   Overcast
3:53 AM 28.9 °F 23.9 °F 21.9 °F 75% 30.05 in 10.0 mi ENE 4.6 mph - N/A   Overcast
4:53 AM 32.0 °F 26.4 °F 19.9 °F 61% 30.04 in 10.0 mi NE 5.8 mph - N/A   Overcast
5:53 AM 28.9 °F 22.8 °F 21.0 °F 72% 30.05 in 10.0 mi NE 5.8 mph - N/A   Clear
6:53 AM 30.9 °F 26.2 °F 19.0 °F 61% 30.06 in 10.0 mi ENE 4.6 mph - N/A   Clear
7:53 AM 30.9 °F 22.8 °F 19.9 °F 64% 30.08 in 10.0 mi East 9.2 mph - N/A   Clear
8:53 AM 34.0 °F 26.0 °F 21.0 °F 59% 30.05 in 10.0 mi East 10.4 mph - N/A   Clear
9:53 AM 37.9 °F 30.9 °F 21.9 °F 53% 30.03 in 10.0 mi ESE 10.4 mph 20.7 mph N/A   Overcast
10:53 AM 39.9 °F 31.4 °F 23.0 °F 51% 29.98 in 10.0 mi SE 16.1 mph 23.0 mph N/A   Clear
11:53 AM 44.1 °F 38.6 °F 24.1 °F 45% 29.92 in 10.0 mi ESE 10.4 mph 17.3 mph N/A   Partly Cloudy
12:53 PM 45.0 °F 38.2 °F 21.9 °F 40% 29.86 in 10.0 mi South 15.0 mph 21.9 mph N/A   Clear
1:53 PM 46.0 °F 39.6 °F 21.9 °F 39% 29.81 in 10.0 mi South 15.0 mph 21.9 mph N/A   Partly Cloudy
2:53 PM 44.1 °F 37.4 °F 21.9 °F 42% 29.79 in 10.0 mi SE 13.8 mph 23.0 mph N/A   Overcast
3:53 PM 46.0 °F 39.0 °F 21.9 °F 39% 29.73 in 10.0 mi SSE 17.3 mph 25.3 mph N/A   Partly Cloudy
4:53 PM 45.0 °F 38.2 °F 23.0 °F 42% 29.71 in 10.0 mi SE 15.0 mph 23.0 mph N/A   Partly Cloudy
5:53 PM 43.0 °F 35.7 °F 21.9 °F 43% 29.74 in 10.0 mi SSE 15.0 mph 26.5 mph N/A   Clear
6:53 PM 42.1 °F 34.9 °F 21.9 °F 45% 29.74 in 10.0 mi South 13.8 mph 21.9 mph N/A   Clear
7:53 PM 39.0 °F 34.0 °F 21.9 °F 50% 29.77 in 10.0 mi SSE 6.9 mph - N/A   Clear
8:53 PM 37.0 °F 34.5 °F 21.9 °F 54% 29.76 in 10.0 mi SSW 3.5 mph - N/A   Clear
9:53 PM 34.0 °F 31.0 °F 21.9 °F 61% 29.76 in 10.0 mi North 3.5 mph - N/A   Clear
10:53 PM 30.9 °F - 21.0 °F 67% 29.75 in 10.0 mi Calm Calm - N/A   Clear
11:53 PM 28.9 °F 21.1 °F 19.9 °F 69% 29.73 in 10.0 mi North 8.1 mph - N/A   Partly Cloudy